Temperature
14 14 14 14 14 14 14 14 14 14 14 14 14 14 14 14 14 14 14 14 14 14 14 14 14 14 14 14 14 14 14 14 14 13 13 13 13 13 13 12 12 12 12
13 13 14 14 14 14 14 14 14 14 14 14 14 14 14 14 14 14 14 14 14 14 14 14 14 14 14 14 14 14 14 14 14 13 13 13 13 13 13 12 12 12 12
13 13 13 13 13 14 14 14 14 14 13 14 14 14 14 14 14 14 14 14 14 14 14 14 14 14 14 14 14 14 14 14 13 13 13 13 13 13 13 12 12 12 12
12 12 13 13 13 13 13 13 13 13 13 13 13 14 14 14 14 14 14 14 14 14 14 14 14 14 14 14 14 14 14 14 13 13 13 13 13 13 12 12 12 12 12
12 12 12 12 12 13 13 13 13 13 13 13 13 13 13 13 13 13 13 13 14 14 14 14 14 14 14 14 13 14 14 14 13 13 13 13 13 13 12 12 12 12 12
11 11 11 12 12 12 12 12 12 12 12 12 12 12 13 13 13 13 13 13 13 13 13 13 13 13 13 13 13 13 13 13 13 13 13 13 13 13 12 12 12 12 12
10 11 11 11 11 11 12 12 12 12 12 12 12 12 12 12 12 13 13 13 13 13 13 13 13 13 13 13 13 13 13 13 13 13 13 13 13 13 12 12 12 12 12
10 10 10 10 10 11 11 11 11 11 11 11 11 11 11 12 12 12 12 12 13 13 13 13 13 13 13 13 13 13 13 13 13 13 13 13 13 12 12 12 12 12 12
9 9 9 9 10 10 10 10 10 10 10 10 10 10 10 11 11 12 12 12 12 12 12 13 13 13 13 13 13 13 13 12 12 12 12 12 12 12 12 12 12 12 12
8 8 8 9 9 9 9 10 10 10 10 10 10 10 10 10 10 10 11 11 11 11 12 12 12 12 12 12 12 12 12 12 12 12 12 12 12 12 12 12 12 12 12
7 7 8 8 8 8 8 9 9 9 9 9 9 9 9 9 9 9 10 10 11 11 11 11 11 11 12 12 12 12 12 12 12 12 11 11 11 11 11 11 11 11 11
7 7 7 7 7 8 8 8 8 8 8 8 8 8 8 8 8 8 9 9 10 10 11 11 11 11 11 11 11 11 11 11 11 11 11 11 11 11 11 11 11 11 11
6 6 6 6 7 7 7 7 7 7 7 7 7 7 7 7 7 8 8 8 8 9 10 10 10 10 10 10 10 11 11 11 11 11 11 11 11 11 11 11 11 10 10
5 5 5 5 6 6 6 6 6 6 6 7 7 7 7 7 7 7 7 7 7 8 8 9 9 9 9 10 10 10 10 10 10 10 10 10 10 10 10 10 10 10 10
4 4 4 4 5 5 5 5 5 5 6 6 6 6 6 6 6 6 6 6 6 6 7 8 8 9 9 9 9 9 9 9 9 10 10 10 10 10 10 10 10 10 10
3 3 4 4 4 4 4 4 4 5 5 5 5 5 5 5 5 5 5 5 5 5 5 6 7 8 8 8 8 8 8 8 9 9 9 9 9 9 9 9 9 9 9
3 3 3 3 3 3 3 3 3 4 4 4 4 4 4 4 4 4 4 4 4 4 4 5 6 6 7 7 7 7 7 8 8 8 8 8 8 8 9 9 9 9 9
2 2 2 2 2 2 2 2 3 3 3 3 3 3 3 3 3 3 3 3 4 4 4 4 5 5 6 6 6 6 7 7 7 7 7 7 8 8 8 8 8 8 8
2 2 2 2 2 2 2 2 2 2 2 2 2 2 2 2 2 2 2 3 3 3 3 3 3 4 4 5 5 5 5 6 6 6 7 7 7 7 7 7 7 8 8
1 1 1 1 1 1 1 1 1 1 1 1 1 1 1 1 1 1 2 2 2 2 2 2 2 3 3 4 4 4 4 5 5 6 6 6 6 6 6 7 7 7 7
1 1 1 1 0 0 0 -0 -0 -0 -0 0 0 0 0 0 0 0 0 1 1 1 1 1 1 2 2 2 2 3 3 3 4 5 5 5 5 6 6 6 6 6 7
1 0 0 0 -0 -0 -1 -1 -1 -1 -1 -1 -1 -0 -0 -0 -0 -0 -0 -0 -0 -0 -0 -0 0 0 1 1 1 1 1 2 2 3 3 4 4 5 5 5 6 6 6
0 -0 -0 -0 -1 -1 -1 -1 -2 -2 -2 -1 -1 -1 -1 -1 -1 -1 -1 -1 -1 -1 -1 -1 -1 -1 -1 -0 0 0 1 1 1 2 2 3 3 4 4 5 5 5 5
-0 -1 -1 -1 -1 -1 -1 -2 -2 -2 -2 -2 -2 -2 -2 -2 -2 -2 -2 -2 -2 -2 -2 -2 -2 -1 -1 -1 -1 -0 -0 0 1 1 1 1 2 3 3 4 4 4 5
-1 -1 -1 -1 -1 -2 -2 -2 -3 -3 -3 -3 -3 -3 -3 -3 -3 -3 -3 -3 -2 -2 -2 -2 -2 -2 -2 -1 -1 -1 -1 -1 -0 0 1 1 1 2 2 3 4 4 4
-1 -2 -2 -2 -2 -2 -2 -3 -4 -4 -4 -4 -3 -4 -4 -4 -4 -4 -4 -4 -3 -3 -3 -3 -2 -2 -2 -2 -2 -2 -2 -2 -1 -1 -0 -0 0 0 1 2 2 3 3
Wind_Speed
3 4 3 4 5 6 6 6 7 8 8 9 10 10 10 11 12 13 13 18 20 20 19 18 18 17 16 15 14 14 13 12 11 10 9 9 8 7 7 6 5 5 4
3 3 4 4 5 7 7 7 8 8 8 8 9 10 11 12 13 14 14 17 20 21 22 21 20 19 18 17 16 16 15 14 13 12 11 10 10 9 9 8 7 6 5
4 3 4 4 5 7 7 7 7 7 7 8 9 10 10 10 11 13 15 15 17 20 22 22 22 21 20 19 18 17 17 16 15 14 13 12 11 11 11 10 9 8 7
5 3 3 4 5 5 5 6 6 7 7 7 8 8 9 8 11 12 13 14 15 16 19 22 22 22 21 21 20 19 18 18 17 16 15 14 13 13 12 12 11 10 9
6 3 3 4 5 4 5 6 6 6 7 7 8 8 8 8 9 10 10 12 15 16 17 20 22 22 22 22 21 20 20 19 18 18 17 16 15 15 14 13 12 12 11
7 4 3 3 3 4 5 5 6 6 6 6 7 7 7 8 7 8 10 9 12 15 17 17 18 19 22 23 23 22 21 21 20 20 19 18 17 16 16 15 14 14 13
8 5 4 3 3 3 4 5 5 6 6 3 3 5 5 7 8 7 7 8 9 12 14 16 16 16 17 22 24 24 23 22 22 21 20 19 19 18 18 17 16 15 14
7 6 4 3 3 3 3 3 3 3 4 3 3 2 3 4 6 8 7 8 9 8 10 13 14 15 15 16 19 23 24 24 23 22 21 21 20 19 19 19 18 17 16
7 6 5 3 3 2 3 3 2 3 4 4 3 3 3 5 3 4 7 8 8 7 8 8 11 14 15 15 15 19 22 23 23 23 22 22 21 21 20 19 18 18 17
7 7 6 5 3 3 3 3 2 2 2 3 3 4 3 2 3 3 3 5 7 8 8 7 9 10 13 13 14 16 18 20 22 24 23 23 22 22 21 21 20 19 18
7 7 6 5 4 3 3 3 2 2 2 3 3 3 3 3 3 4 4 3 4 6 7 8 7 7 9 11 12 14 17 19 21 22 22 23 23 23 22 21 21 20 18
5 7 7 5 4 3 3 3 3 3 2 2 2 2 2 2 2 3 5 5 5 5 6 7 7 7 8 10 12 14 16 18 20 22 23 22 21 22 22 22 22 20 19
5 6 6 5 5 4 4 4 3 3 2 3 3 3 3 3 2 3 4 4 5 4 4 5 6 6 7 9 11 14 16 17 19 21 23 23 21 20 20 21 22 21 20
5 6 6 6 6 6 5 4 3 3 3 3 4 3 3 3 3 3 3 4 5 5 5 5 3 5 5 7 10 13 13 16 18 20 22 21 20 19 19 19 21 21 21
5 5 5 5 5 5 5 4 3 4 4 3 4 4 4 4 3 3 3 3 5 7 7 5 3 3 5 6 9 10 11 14 17 18 19 19 18 18 18 18 18 20 20
5 5 5 5 5 6 6 5 5 5 4 4 3 4 4 4 4 3 3 4 4 6 7 4 4 4 5 6 9 9 11 13 16 18 19 19 19 19 18 18 17 19 20
5 5 5 5 5 6 6 5 6 6 5 5 5 5 5 5 4 4 4 4 4 5 8 6 4 4 5 6 6 8 10 10 11 16 18 19 19 19 19 19 18 19 20
5 5 5 5 6 6 6 6 6 6 6 5 5 5 6 6 5 5 4 5 5 5 6 9 6 4 5 6 6 8 7 9 9 14 17 18 19 19 19 18 19 19 20
5 6 5 5 6 6 5 5 5 5 6 5 5 5 6 6 6 5 5 5 5 5 5 7 7 5 5 4 6 6 7 7 7 11 15 17 18 18 18 19 19 19 20
4 5 5 5 5 5 5 5 5 5 5 5 5 5 6 6 6 7 6 6 5 6 5 6 7 6 5 4 4 6 7 6 7 7 10 12 14 17 19 19 20 19 20
5 4 5 5 5 5 5 6 5 5 5 5 5 5 6 8 9 8 7 6 6 6 6 6 7 6 6 4 5 5 8 7 7 5 6 7 8 9 12 17 18 18 19
4 4 4 5 6 5 9 10 8 5 5 5 6 6 7 8 10 12 12 11 9 7 7 7 7 8 8 7 7 7 7 7 7 4 5 8 6 8 8 10 15 18 18
4 4 4 4 5 7 11 11 11 6 4 5 5 6 7 8 10 8 11 12 11 11 11 8 9 9 9 8 8 9 8 9 10 6 6 9 7 9 7 10 15 18 19
4 4 4 5 5 7 11 11 11 6 4 5 5 6 7 8 9 9 8 8 8 8 10 8 8 10 10 9 9 10 11 10 9 7 7 9 7 8 7 8 15 18 19
4 4 4 5 5 7 11 12 11 4 4 6 6 6 7 8 13 15 10 9 10 9 12 14 14 14 15 16 12 8 7 8 9 7 6 6 5 5 6 7 10 16 17
4 4 5 5 5 6 10 12 12 4 5 6 6 6 10 12 15 16 10 9 11 11 10 10 11 12 11 11 13 9 7 8 7 6 5 5 4 2 3 4 4 7 10
Wind_Direction
253 241 234 227 224 222 215 212 211 209 210 213 218 220 222 223 225 220 221 220 216 214 212 211 210 210 213 214 214 214 212 212 212 213 211 208 207 206 200 198 200 201 206
259 250 244 233 226 224 223 217 215 215 217 216 221 224 226 223 225 223 221 221 219 216 214 214 215 214 215 216 217 217 216 215 215 215 216 215 214 213 211 210 210 209 210
280 259 251 245 238 233 225 221 221 219 223 223 227 227 228 225 223 222 221 218 219 220 218 218 218 218 218 219 220 220 219 219 219 219 219 218 218 218 216 215 214 214 216
293 270 258 255 253 241 227 225 221 222 226 227 230 232 230 226 225 223 220 217 216 219 220 221 222 221 221 222 223 223 223 221 220 221 221 221 221 221 219 220 218 217 219
309 287 264 270 263 245 235 234 228 223 229 232 233 234 233 228 224 222 220 218 217 218 218 221 223 224 223 224 226 227 226 224 222 222 223 222 223 222 222 222 221 221 224
327 317 297 293 283 260 250 243 238 232 232 234 241 242 237 232 224 221 220 219 220 220 219 220 221 226 227 226 228 230 230 227 225 224 225 225 224 223 224 225 225 224 224
336 336 320 315 302 274 266 255 238 236 234 227 234 253 251 239 231 227 223 220 221 222 220 220 220 222 226 228 229 231 232 231 229 228 227 226 225 226 226 227 227 227 226
343 341 336 320 314 302 293 285 271 250 238 215 214 233 254 257 242 233 226 223 225 221 223 224 222 221 223 223 226 228 232 233 233 232 230 228 228 229 228 228 228 229 228
347 348 341 328 323 316 301 296 287 269 262 239 211 213 220 234 255 243 230 227 228 227 228 225 225 227 225 223 224 226 229 233 234 234 234 232 231 231 231 230 228 228 227
349 349 347 343 334 325 318 301 295 272 262 265 255 239 244 239 235 257 250 230 228 230 232 233 227 227 225 225 226 226 227 230 236 238 238 236 235 234 233 232 231 231 228
350 350 350 345 339 330 319 311 309 297 271 264 266 268 255 263 252 251 260 248 241 230 231 232 228 229 229 226 226 229 227 229 235 240 242 240 238 237 235 234 232 231 228
338 346 349 348 343 337 327 317 309 299 290 283 277 274 268 248 243 248 254 254 251 241 235 230 224 226 232 230 232 233 230 231 236 241 243 243 242 241 240 237 234 231 228
339 343 346 344 346 343 340 336 335 323 311 299 284 277 275 272 273 260 260 266 259 256 240 236 230 228 231 235 239 237 235 234 237 240 244 245 244 242 242 239 232 230 227
335 342 346 346 347 347 346 340 338 328 326 307 302 290 277 279 275 270 264 273 275 259 241 243 233 228 243 246 247 238 241 238 239 241 244 247 246 241 238 237 233 230 227
340 347 346 347 351 353 349 340 335 333 330 321 309 301 289 281 272 271 269 260 261 266 260 249 242 248 259 259 258 250 249 245 243 244 244 245 245 241 234 231 231 226 223
340 343 348 349 352 355 357 354 344 341 337 329 323 323 312 304 295 280 269 263 253 257 265 261 253 276 262 264 264 258 255 252 245 244 245 244 242 239 233 229 228 225 222
343 344 343 348 352 355 357 356 352 349 346 343 341 332 321 316 310 303 290 279 268 258 265 274 271 280 264 265 271 265 261 255 251 246 245 243 241 238 233 229 227 226 223
346 346 349 353 353 355 355 353 350 349 344 341 337 336 335 329 323 315 305 293 281 270 266 278 281 277 268 269 267 266 264 261 256 251 247 245 241 236 231 228 227 225 222
348 351 354 355 351 349 349 347 343 341 336 332 334 336 333 329 322 313 306 298 295 294 277 276 280 277 272 281 279 276 274 263 266 258 249 245 241 238 234 230 228 225 222
346 345 346 346 342 339 341 339 338 337 334 335 338 337 333 329 324 321 316 310 308 302 295 286 282 280 273 278 272 272 275 263 266 267 258 250 245 242 238 235 230 226 221
344 338 340 340 338 338 342 344 338 337 334 335 335 332 329 329 330 327 322 319 318 306 301 298 292 288 281 286 277 274 273 273 267 256 257 256 250 243 238 235 229 225 223
333 340 341 337 338 340 342 346 346 338 336 333 329 327 327 329 329 327 323 320 316 307 303 295 292 291 287 278 274 273 276 276 269 241 250 262 251 252 244 231 232 226 224
334 333 328 330 328 330 343 345 344 340 333 327 323 322 324 327 328 320 317 317 313 310 304 294 288 288 287 284 281 275 268 267 268 259 255 259 245 249 251 243 236 230 227
323 321 321 321 321 329 342 343 343 344 326 316 312 310 311 312 316 318 313 309 302 300 299 293 282 283 286 284 273 272 270 272 274 264 237 252 250 252 252 242 237 231 227
319 316 316 320 321 324 337 340 341 327 319 312 309 309 312 307 315 321 318 309 304 301 302 300 297 295 296 297 293 285 277 272 276 269 236 239 249 262 257 247 237 228 226
310 318 320 318 316 315 330 338 338 327 320 316 311 307 314 317 318 320 314 308 304 303 305 304 301 300 295 293 293 277 269 270 277 271 236 224 243 250 263 244 227 230 229
Height
1512 1512 1513 1513 1514 1515 1515 1516 1517 1517 1518 1519 1520 1521 1522 1524 1525 1526 1527 1528 1529 1530 1530 1531 1531 1532 1532 1533 1533 1534 1534 1534 1535 1535 1535 1535 1535 1535 1535 1535 1535 1534 1534
1508 1508 1509 1509 1509 1510 1511 1511 1512 1513 1514 1515 1516 1517 1518 1519 1520 1521 1522 1524 1525 1526 1527 1527 1528 1529 1529 1530 1530 1531 1531 1532 1532 1533 1533 1533 1533 1533 1533 1533 1533 1532 1532
1504 1504 1504 1504 1505 1506 1506 1506 1507 1508 1509 1510 1511 1512 1513 1514 1515 1516 1518 1519 1520 1521 1522 1523 1524 1525 1526 1526 1527 1528 1528 1529 1529 1530 1530 1531 1531 1531 1531 1531 1530 1530 1530
1500 1499 1499 1500 1500 1501 1501 1501 1502 1503 1504 1504 1505 1506 1507 1509 1510 1511 1512 1514 1515 1516 1517 1519 1520 1521 1522 1523 1523 1524 1525 1526 1526 1527 1527 1528 1528 1528 1528 1528 1528 1527 1527
1495 1495 1495 1495 1496 1496 1496 1497 1497 1497 1498 1499 1500 1501 1502 1503 1504 1505 1506 1508 1509 1511 1512 1514 1515 1516 1517 1518 1519 1520 1521 1521 1522 1523 1524 1524 1524 1525 1525 1525 1525 1524 1524
1491 1490 1490 1490 1491 1491 1491 1491 1491 1492 1492 1493 1494 1495 1496 1497 1498 1499 1500 1502 1503 1505 1506 1508 1509 1510 1512 1513 1514 1515 1516 1517 1518 1519 1519 1520 1520 1521 1521 1521 1521 1521 1521
1486 1486 1485 1485 1485 1486 1486 1486 1486 1486 1487 1488 1489 1489 1490 1491 1491 1492 1494 1495 1496 1498 1500 1501 1503 1504 1506 1507 1508 1510 1511 1512 1513 1514 1515 1515 1516 1516 1517 1517 1517 1517 1517
1482 1481 1481 1481 1481 1481 1480 1480 1480 1481 1481 1482 1483 1484 1484 1484 1484 1485 1487 1488 1489 1491 1493 1494 1496 1497 1499 1500 1502 1504 1505 1506 1507 1508 1509 1510 1511 1512 1512 1512 1513 1513 1513
1478 1478 1477 1477 1476 1476 1476 1475 1476 1476 1476 1477 1478 1480 1479 1477 1478 1478 1480 1481 1483 1484 1486 1487 1489 1490 1492 1494 1495 1497 1498 1500 1501 1502 1503 1504 1505 1506 1506 1507 1508 1508 1508
1475 1474 1473 1473 1472 1472 1471 1471 1472 1472 1472 1472 1472 1473 1474 1474 1474 1472 1473 1474 1476 1477 1479 1480 1481 1483 1485 1487 1488 1489 1491 1493 1494 1495 1497 1498 1499 1500 1500 1501 1502 1503 1503
1471 1470 1470 1469 1468 1468 1467 1467 1467 1467 1467 1467 1468 1468 1467 1468 1469 1469 1467 1468 1469 1470 1471 1473 1474 1476 1478 1479 1481 1482 1484 1485 1487 1488 1490 1491 1492 1493 1494 1495 1496 1497 1498
1468 1467 1466 1465 1465 1464 1464 1463 1463 1463 1462 1462 1463 1463 1462 1463 1462 1463 1463 1461 1462 1462 1464 1466 1467 1468 1470 1472 1473 1474 1476 1478 1479 1481 1482 1483 1484 1486 1487 1489 1490 1491 1492
1465 1464 1463 1462 1461 1460 1460 1460 1459 1458 1458 1458 1458 1458 1458 1458 1458 1459 1458 1456 1456 1456 1457 1458 1459 1460 1462 1463 1464 1466 1468 1470 1472 1473 1474 1475 1477 1478 1480 1481 1483 1484 1485
1464 1462 1461 1459 1458 1457 1456 1456 1455 1454 1454 1454 1453 1453 1453 1453 1453 1453 1453 1453 1451 1449 1449 1450 1451 1453 1454 1455 1456 1458 1460 1462 1463 1465 1466 1467 1468 1470 1472 1473 1475 1477 1478
1462 1460 1459 1457 1455 1454 1453 1452 1451 1450 1450 1449 1448 1448 1448 1447 1447 1447 1447 1448 1448 1445 1442 1443 1444 1445 1447 1448 1449 1450 1451 1452 1454 1456 1457 1459 1460 1462 1463 1465 1467 1469 1471
1460 1458 1457 1455 1453 1451 1449 1448 1447 1446 1445 1444 1443 1443 1442 1442 1442 1442 1442 1442 1441 1440 1438 1437 1438 1438 1439 1440 1441 1441 1442 1443 1445 1447 1448 1450 1451 1453 1454 1457 1458 1460 1462
1459 1456 1455 1453 1450 1449 1447 1445 1444 1442 1441 1440 1439 1438 1437 1437 1436 1436 1436 1435 1435 1434 1432 1430 1431 1432 1432 1432 1432 1433 1433 1434 1435 1437 1438 1440 1442 1444 1445 1447 1449 1452 1454
1457 1454 1452 1450 1448 1446 1444 1443 1441 1439 1437 1436 1435 1434 1433 1432 1431 1430 1430 1429 1429 1428 1427 1424 1424 1424 1424 1424 1424 1424 1425 1425 1426 1427 1428 1430 1432 1434 1435 1437 1440 1442 1444
1454 1452 1450 1448 1446 1444 1442 1440 1438 1436 1435 1433 1431 1430 1429 1428 1426 1426 1425 1423 1423 1422 1421 1419 1417 1417 1417 1417 1417 1416 1416 1416 1417 1418 1419 1421 1422 1424 1426 1428 1430 1432 1435
1452 1450 1448 1446 1443 1441 1439 1437 1436 1434 1432 1430 1429 1427 1426 1424 1423 1421 1420 1418 1417 1416 1415 1413 1411 1410 1410 1409 1409 1408 1407 1408 1408 1409 1410 1411 1413 1414 1416 1418 1420 1422 1424
1450 1448 1446 1444 1442 1439 1437 1435 1433 1431 1429 1427 1425 1424 1422 1420 1419 1417 1416 1414 1412 1410 1409 1407 1405 1404 1403 1402 1402 1401 1400 1399 1399 1400 1400 1401 1403 1404 1405 1407 1409 1411 1414
1448 1446 1444 1442 1439 1437 1435 1433 1431 1428 1426 1424 1422 1420 1418 1416 1414 1413 1411 1409 1408 1406 1403 1402 1400 1398 1397 1396 1396 1395 1393 1392 1390 1392 1392 1391 1393 1393 1395 1397 1399 1401 1404
1446 1444 1441 1439 1437 1434 1432 1430 1428 1426 1423 1421 1418 1416 1414 1412 1410 1408 1405 1404 1402 1401 1399 1398 1395 1392 1391 1390 1389 1387 1386 1385 1383 1384 1384 1382 1383 1383 1385 1386 1389 1391 1394
1443 1441 1439 1436 1434 1432 1429 1427 1425 1422 1420 1417 1415 1413 1410 1407 1405 1403 1400 1398 1395 1394 1392 1391 1389 1386 1385 1383 1382 1381 1379 1377 1376 1376 1377 1374 1374 1374 1375 1377 1379 1382 1384
1441 1438 1436 1434 1431 1429 1426 1424 1422 1418 1416 1413 1411 1409 1406 1403 1401 1398 1395 1392 1389 1387 1385 1383 1381 1379 1378 1376 1375 1374 1372 1371 1367 1366 1368 1367 1365 1366 1366 1367 1369 1372 1375
1438 1436 1433 1431 1428 1426 1423 1421 1418 1415 1412 1409 1406 1404 1402 1399 1396 1393 1390 1387 1383 1380 1378 1375 1373 1372 1370 1369 1368 1367 1365 1363 1360 1359 1359 1360 1358 1359 1358 1357 1360 1363 1366